| time (UTC) | temp C | wind direction | speed KPH | gust KPH | rain 1hr cm | rain 24hr cm | rain mn cm | humidity % | barometer mb |
| 20260509151857 | 15 | 216 | 17.7 | 24.1 | 0.00 | 0.00 | 0.00 | 64 | 995.1 |
| 20260509151356 | 15 | 233 | 9.7 | 25.7 | 0.00 | 0.00 | 0.00 | 64 | 995.1 |
| 20260509150859 | 15 | 238 | 12.9 | 25.7 | 0.00 | 0.00 | 0.00 | 65 | 995.1 |
| 20260509150355 | 15 | 237 | 6.4 | 19.3 | 0.00 | 0.00 | 0.00 | 65 | 995.0 |
| 20260509145856 | 15 | 228 | 6.4 | 22.5 | 0.00 | 0.00 | 0.00 | 64 | 995.1 |
| 20260509145403 | 15 | 247 | 12.9 | 24.1 | 0.00 | 0.00 | 0.00 | 64 | 995.1 |
| 20260509144852 | 15 | 244 | 9.7 | 29.0 | 0.00 | 0.00 | 0.00 | 63 | 995.2 |
| 20260509144656 | 15 | 213 | 14.5 | 29.0 | 0.00 | 0.00 | 0.00 | 63 | 995.1 |
| 20260509143934 | 15 | 258 | 12.9 | 24.1 | 0.00 | 0.00 | 0.00 | 64 | 995.0 |
| 20260509143353 | 15 | 213 | 11.3 | 24.1 | 0.00 | 0.00 | 0.00 | 64 | 994.9 |
| 20260509142853 | 15 | 200 | 12.9 | 24.1 | 0.00 | 0.00 | 0.00 | 64 | 994.8 |
| 20260509142349 | 15 | 241 | 14.5 | 27.4 | 0.00 | 0.00 | 0.00 | 65 | 994.9 |
| 20260509141848 | 15 | 234 | 12.9 | 27.4 | 0.00 | 0.00 | 0.00 | 66 | 995.1 |
| 20260509141346 | 14 | 236 | 14.5 | 30.6 | 0.00 | 0.00 | 0.00 | 65 | 995.3 |
| 20260509140847 | 15 | 279 | 14.5 | 33.8 | 0.00 | 0.00 | 0.00 | 65 | 995.2 |
| 20260509140346 | 15 | 236 | 19.3 | 33.8 | 0.00 | 0.00 | 0.00 | 64 | 994.8 |
| 20260509135846 | 15 | 185 | 12.9 | 24.1 | 0.00 | 0.00 | 0.00 | 65 | 994.7 |
| 20260509135400 | 15 | 255 | 11.3 | 24.1 | 0.00 | 0.00 | 0.00 | 66 | 994.9 |
| 20260509134845 | 14 | 244 | 12.9 | 24.1 | 0.00 | 0.00 | 0.00 | 67 | 995.0 |
| 20260509134407 | 13 | 158 | 9.7 | 22.5 | 0.00 | 0.00 | 0.00 | 66 | 995.0 |
| 20260509133845 | 13 | 223 | 11.3 | 20.9 | 0.00 | 0.00 | 0.00 | 66 | 995.1 |
| 20260509133343 | 13 | 183 | 9.7 | 25.7 | 0.00 | 0.00 | 0.00 | 65 | 995.1 |
| 20260509132843 | 13 | 233 | 14.5 | 25.7 | 0.00 | 0.00 | 0.00 | 64 | 995.3 |
| 20260509132354 | 13 | 197 | 11.3 | 24.1 | 0.00 | 0.00 | 0.00 | 63 | 995.3 |
| 20260509131842 | 13 | 188 | 12.9 | 30.6 | 0.00 | 0.00 | 0.00 | 62 | 995.3 |
| 20260509131341 | 13 | 217 | 17.7 | 30.6 | 0.00 | 0.00 | 0.00 | 62 | 995.4 |
| 20260509130843 | 12 | 252 | 11.3 | 29.0 | 0.00 | 0.00 | 0.00 | 61 | 995.2 |
| 20260509130342 | 12 | 219 | 9.7 | 27.4 | 0.00 | 0.00 | 0.00 | 60 | 995.4 |
| 20260509125842 | 12 | 204 | 14.5 | 27.4 | 0.00 | 0.00 | 0.00 | 59 | 995.4 |
| 20260509125341 | 12 | 227 | 12.9 | 24.1 | 0.00 | 0.00 | 0.00 | 59 | 995.5 |
| 20260509124841 | 12 | 224 | 11.3 | 24.1 | 0.00 | 0.00 | 0.00 | 58 | 995.6 |
| 20260509124604 | 12 | 220 | 11.3 | 25.7 | 0.00 | 0.00 | 0.00 | 58 | 995.5 |
| 20260509123838 | 11 | 204 | 14.5 | 25.7 | 0.00 | 0.00 | 0.00 | 58 | 995.5 |
| 20260509123335 | 11 | 216 | 12.9 | 27.4 | 0.00 | 0.00 | 0.00 | 57 | 995.6 |
| 20260509122833 | 11 | 241 | 8.0 | 27.4 | 0.00 | 0.00 | 0.00 | 57 | 995.8 |
| 20260509122600 | 11 | 207 | 16.1 | 27.4 | 0.00 | 0.00 | 0.00 | 56 | 995.9 |
| 20260509121833 | 11 | 231 | 11.3 | 24.1 | 0.00 | 0.00 | 0.00 | 56 | 995.9 |
| 20260509121332 | 11 | 214 | 9.7 | 22.5 | 0.00 | 0.00 | 0.00 | 56 | 996.1 |
| 20260509121057 | 11 | 175 | 14.5 | 24.1 | 0.00 | 0.00 | 0.00 | 56 | 996.2 |
| 20260509120331 | 11 | 228 | 14.5 | 24.1 | 0.00 | 0.00 | 0.00 | 55 | 996.2 |
| 20260509120056 | 11 | 214 | 11.3 | 24.1 | 0.00 | 0.00 | 0.00 | 55 | 996.0 |
| 20260509115327 | 11 | 219 | 11.3 | 24.1 | 0.00 | 0.00 | 0.00 | 54 | 996.1 |
| 20260509114824 | 11 | 213 | 12.9 | 22.5 | 0.00 | 0.00 | 0.00 | 54 | 996.1 |
| 20260509114549 | 11 | 154 | 9.7 | 29.0 | 0.00 | 0.00 | 0.00 | 53 | 996.5 |
| 20260509113824 | 11 | 204 | 11.3 | 29.0 | 0.00 | 0.00 | 0.00 | 53 | 996.7 |
| 20260509113324 | 10 | 193 | 11.3 | 25.7 | 0.00 | 0.00 | 0.00 | 53 | 996.7 |
| 20260509112825 | 10 | 190 | 14.5 | 25.7 | 0.00 | 0.00 | 0.00 | 53 | 996.6 |
| 20260509112551 | 10 | 220 | 11.3 | 25.7 | 0.00 | 0.00 | 0.00 | 53 | 996.7 |
| 20260509111824 | 10 | 202 | 14.5 | 24.1 | 0.00 | 0.00 | 0.00 | 52 | 996.7 |
| 20260509111326 | 10 | 213 | 12.9 | 22.5 | 0.00 | 0.00 | 0.00 | 52 | 996.9 |
| 20260509110821 | 10 | 179 | 11.3 | 25.7 | 0.00 | 0.00 | 0.00 | 52 | 996.8 |
| 20260509110321 | 10 | 186 | 9.7 | 25.7 | 0.00 | 0.00 | 0.00 | 53 | 996.9 |
| 20260509105821 | 10 | 197 | 12.9 | 24.1 | 0.00 | 0.00 | 0.00 | 53 | 997.0 |
| 20260509105321 | 10 | 204 | 9.7 | 24.1 | 0.00 | 0.00 | 0.00 | 53 | 997.1 |
| 20260509104821 | 10 | 202 | 9.7 | 22.5 | 0.00 | 0.00 | 0.00 | 54 | 997.2 |
| 20260509104546 | 9 | 203 | 12.9 | 22.5 | 0.00 | 0.00 | 0.00 | 54 | 997.2 |
| 20260509103820 | 9 | 220 | 8.0 | 20.9 | 0.00 | 0.00 | 0.00 | 54 | 997.2 |
| 20260509103321 | 9 | 220 | 8.0 | 20.9 | 0.00 | 0.00 | 0.00 | 53 | 997.2 |
| 20260509102820 | 9 | 209 | 12.9 | 20.9 | 0.00 | 0.00 | 0.00 | 53 | 997.4 |
| 20260509102319 | 9 | 210 | 11.3 | 20.9 | 0.00 | 0.00 | 0.00 | 53 | 997.5 |
| 20260509101819 | 9 | 200 | 11.3 | 20.9 | 0.00 | 0.00 | 0.00 | 53 | 997.6 |
| 20260509101545 | 9 | 216 | 11.3 | 22.5 | 0.00 | 0.00 | 0.00 | 54 | 997.6 |
| 20260509100817 | 9 | 212 | 12.9 | 22.5 | 0.00 | 0.00 | 0.00 | 53 | 997.6 |
| 20260509100539 | 9 | 221 | 9.7 | 25.7 | 0.00 | 0.00 | 0.00 | 53 | 997.7 |
| 20260509095815 | 9 | 213 | 12.9 | 25.7 | 0.00 | 0.00 | 0.00 | 53 | 997.7 |
| 20260509095315 | 9 | 216 | 12.9 | 25.7 | 0.00 | 0.00 | 0.00 | 54 | 997.8 |
| 20260509094815 | 9 | 203 | 12.9 | 22.5 | 0.00 | 0.00 | 0.00 | 54 | 997.8 |
| 20260509094316 | 9 | 217 | 11.3 | 22.5 | 0.00 | 0.00 | 0.00 | 54 | 997.8 |
| 20260509093811 | 9 | 236 | 12.9 | 22.5 | 0.00 | 0.00 | 0.00 | 54 | 998.1 |
| 20260509093311 | 9 | 230 | 11.3 | 20.9 | 0.00 | 0.00 | 0.00 | 53 | 998.1 |
| 20260509092811 | 9 | 219 | 14.5 | 24.1 | 0.00 | 0.00 | 0.00 | 53 | 998.2 |
| 20260509092313 | 9 | 230 | 11.3 | 24.1 | 0.00 | 0.00 | 0.00 | 53 | 998.3 |
| 20260509091810 | 9 | 227 | 9.7 | 19.3 | 0.00 | 0.00 | 0.00 | 53 | 998.2 |
| 20260509090810 | 10 | 203 | 11.3 | 20.9 | 0.00 | 0.00 | 0.00 | 52 | 998.3 |
| 20260509090535 | 10 | 159 | 9.7 | 22.5 | 0.00 | 0.00 | 0.00 | 52 | 998.3 |
| 20260509090043 | 10 | 212 | 11.3 | 22.5 | 0.00 | 0.00 | 0.00 | 52 | 998.4 |
| 20260509085310 | 10 | 210 | 11.3 | 20.9 | 0.00 | 0.00 | 0.00 | 53 | 998.4 |
| 20260509084810 | 10 | 200 | 11.3 | 16.1 | 0.00 | 0.00 | 0.00 | 53 | 998.5 |
| 20260509084310 | 10 | 212 | 8.0 | 16.1 | 0.00 | 0.00 | 0.00 | 53 | 998.7 |
| 20260509083809 | 10 | 236 | 9.7 | 17.7 | 0.00 | 0.00 | 0.00 | 53 | 998.8 |
| 20260509083310 | 10 | 204 | 8.0 | 17.7 | 0.00 | 0.00 | 0.00 | 53 | 998.8 |
| 20260509082812 | 9 | 228 | 8.0 | 17.7 | 0.00 | 0.00 | 0.00 | 54 | 999.0 |
| 20260509082309 | 10 | 224 | 8.0 | 19.3 | 0.00 | 0.00 | 0.00 | 54 | 999.1 |
| 20260509082050 | 10 | 200 | 8.0 | 22.5 | 0.00 | 0.00 | 0.00 | 54 | 999.1 |
| 20260509080808 | 10 | 213 | 6.4 | 14.5 | 0.00 | 0.00 | 0.00 | 54 | 999.2 |
| 20260509080309 | 10 | 238 | 4.8 | 17.7 | 0.00 | 0.00 | 0.00 | 55 | 999.3 |
| 20260509075809 | 9 | 199 | 9.7 | 17.7 | 0.00 | 0.00 | 0.00 | 55 | 999.4 |
| 20260509075308 | 9 | 175 | 6.4 | 19.3 | 0.00 | 0.00 | 0.00 | 56 | 999.4 |
| 20260509074822 | 9 | 207 | 9.7 | 19.3 | 0.00 | 0.00 | 0.00 | 57 | 999.6 |
| 20260509074307 | 9 | 212 | 9.7 | 16.1 | 0.00 | 0.00 | 0.00 | 58 | 999.6 |
| 20260509074038 | 8 | 206 | 6.4 | 14.5 | 0.00 | 0.00 | 0.00 | 59 | 999.7 |
| 20260509073308 | 8 | 213 | 8.0 | 14.5 | 0.00 | 0.00 | 0.00 | 59 | 999.7 |
| 20260509072807 | 8 | 207 | 6.4 | 16.1 | 0.00 | 0.00 | 0.00 | 60 | 999.8 |
| 20260509072309 | 8 | 204 | 9.7 | 16.1 | 0.00 | 0.00 | 0.00 | 61 | 1000.1 |
| 20260509071818 | 8 | 214 | 4.8 | 16.1 | 0.00 | 0.00 | 0.00 | 61 | 1000.2 |
| 20260509071308 | 8 | 240 | 6.4 | 16.1 | 0.00 | 0.00 | 0.00 | 61 | 1000.2 |
| 20260509070807 | 8 | 258 | 3.2 | 9.7 | 0.00 | 0.00 | 0.00 | 61 | 1000.3 |
| 20260509070307 | 8 | 200 | 8.0 | 14.5 | 0.00 | 0.00 | 0.00 | 63 | 1000.4 |
| 20260509065807 | 8 | 230 | 6.4 | 14.5 | 0.00 | 0.00 | 0.00 | 64 | 1000.3 |
| 20260509065306 | 7 | 189 | 4.8 | 14.5 | 0.00 | 0.00 | 0.00 | 67 | 1000.4 |
| 20260509064815 | 7 | 196 | 4.8 | 9.7 | 0.00 | 0.00 | 0.00 | 68 | 1000.4 |
| 20260509064306 | 7 | 158 | 3.2 | 6.4 | 0.00 | 0.00 | 0.00 | 69 | 1000.4 |
| 20260509063807 | 7 | 138 | 1.6 | 6.4 | 0.00 | 0.00 | 0.00 | 69 | 1000.6 |
| 20260509063307 | 7 | 161 | 1.6 | 8.0 | 0.00 | 0.00 | 0.00 | 70 | 1000.8 |
| 20260509062807 | 7 | 151 | 3.2 | 8.0 | 0.00 | 0.00 | 0.00 | 70 | 1000.9 |
| 20260509062306 | 7 | 140 | 3.2 | 6.4 | 0.00 | 0.00 | 0.00 | 69 | 1001.0 |
| 20260509061805 | 7 | 126 | 3.2 | 6.4 | 0.00 | 0.00 | 0.00 | 70 | 1001.3 |
| 20260509061307 | 7 | 145 | 3.2 | 6.4 | 0.00 | 0.00 | 0.00 | 70 | 1001.4 |
| 20260509061037 | 7 | 178 | 3.2 | 6.4 | 0.00 | 0.00 | 0.00 | 70 | 1001.5 |
| 20260509060305 | 7 | 185 | 3.2 | 6.4 | 0.00 | 0.00 | 0.00 | 70 | 1001.4 |
| 20260509055805 | 7 | 155 | 3.2 | 6.4 | 0.00 | 0.00 | 0.00 | 70 | 1001.5 |
| 20260509055307 | 7 | 162 | 3.2 | 4.8 | 0.00 | 0.00 | 0.00 | 70 | 1001.6 |
| 20260509054805 | 7 | 154 | 1.6 | 4.8 | 0.00 | 0.00 | 0.00 | 71 | 1001.7 |
| 20260509054306 | 7 | 162 | 3.2 | 4.8 | 0.00 | 0.00 | 0.00 | 70 | 1001.8 |
| 20260509054032 | 7 | 169 | 1.6 | 4.8 | 0.00 | 0.00 | 0.00 | 70 | 1001.8 |
| 20260509053304 | 7 | 166 | 1.6 | 4.8 | 0.00 | 0.00 | 0.00 | 69 | 1001.9 |
| 20260509052804 | 7 | 137 | 0.0 | 3.2 | 0.00 | 0.00 | 0.00 | 69 | 1001.9 |
| 20260509052307 | 8 | 135 | 1.6 | 3.2 | 0.00 | 0.00 | 0.00 | 68 | 1002.0 |
| 20260509051802 | 8 | 168 | 1.6 | 3.2 | 0.00 | 0.00 | 0.00 | 65 | 1002.1 |
| 20260509051302 | 8 | 193 | 1.6 | 3.2 | 0.00 | 0.00 | 0.00 | 64 | 1002.1 |
| 20260509050802 | 8 | 202 | 0.0 | 4.8 | 0.00 | 0.00 | 0.00 | 64 | 1002.1 |
| 20260509050302 | 8 | 207 | 0.0 | 8.0 | 0.00 | 0.00 | 0.00 | 63 | 1002.1 |
| 20260509045802 | 8 | 202 | 3.2 | 8.0 | 0.00 | 0.00 | 0.00 | 63 | 1002.2 |
| 20260509045306 | 8 | 195 | 1.6 | 9.7 | 0.00 | 0.00 | 0.00 | 63 | 1002.2 |
| 20260509044802 | 8 | 154 | 3.2 | 9.7 | 0.00 | 0.00 | 0.00 | 63 | 1002.1 |
| 20260509044530 | 8 | 185 | 3.2 | 9.7 | 0.00 | 0.00 | 0.00 | 62 | 1002.2 |
| 20260509043805 | 8 | 188 | 3.2 | 11.3 | 0.00 | 0.00 | 0.00 | 63 | 1002.3 |
| 20260509043535 | 8 | 162 | 6.4 | 11.3 | 0.00 | 0.00 | 0.00 | 62 | 1002.3 |
| 20260509042804 | 8 | 179 | 6.4 | 17.7 | 0.00 | 0.00 | 0.00 | 62 | 1002.3 |
| 20260509042301 | 8 | 185 | 9.7 | 17.7 | 0.00 | 0.00 | 0.00 | 61 | 1002.4 |
| 20260509041803 | 8 | 144 | 6.4 | 16.1 | 0.00 | 0.00 | 0.00 | 61 | 1002.5 |
| 20260509041542 | 8 | 166 | 8.0 | 16.1 | 0.00 | 0.00 | 0.00 | 61 | 1002.6 |
| 20260509040804 | 8 | 176 | 6.4 | 16.1 | 0.00 | 0.00 | 0.00 | 61 | 1002.6 |
| 20260509040303 | 8 | 202 | 6.4 | 17.7 | 0.00 | 0.00 | 0.00 | 61 | 1002.7 |
| 20260509035802 | 8 | 196 | 8.0 | 17.7 | 0.00 | 0.00 | 0.00 | 62 | 1002.7 |
| 20260509035533 | 8 | 149 | 8.0 | 16.1 | 0.00 | 0.00 | 0.00 | 62 | 1002.8 |
| 20260509035039 | 8 | 196 | 6.4 | 11.3 | 0.00 | 0.00 | 0.00 | 62 | 1002.9 |
| 20260509034522 | 8 | 189 | 4.8 | 11.3 | 0.00 | 0.00 | 0.00 | 62 | 1003.0 |
| 20260509034028 | 8 | 175 | 6.4 | 11.3 | 0.00 | 0.00 | 0.00 | 62 | 1003.0 |
| 20260509033252 | 8 | 182 | 6.4 | 9.7 | 0.00 | 0.00 | 0.00 | 63 | 1003.1 |
| 20260509032753 | 8 | 161 | 6.4 | 14.5 | 0.00 | 0.00 | 0.00 | 62 | 1003.2 |
| 20260509032247 | 8 | 213 | 4.8 | 14.5 | 0.00 | 0.00 | 0.00 | 62 | 1003.2 |
| 20260509032021 | 8 | 192 | 4.8 | 14.5 | 0.00 | 0.00 | 0.00 | 63 | 1003.2 |
| 20260509031247 | 8 | 151 | 4.8 | 11.3 | 0.00 | 0.00 | 0.00 | 64 | 1003.3 |
| 20260509031022 | 8 | 165 | 6.4 | 11.3 | 0.00 | 0.00 | 0.00 | 65 | 1003.4 |
| 20260509030246 | 8 | 158 | 6.4 | 11.3 | 0.00 | 0.00 | 0.00 | 65 | 1003.5 |
| 20260509025746 | 8 | 172 | 6.4 | 11.3 | 0.00 | 0.00 | 0.00 | 65 | 1003.7 |
| 20260509025246 | 8 | 162 | 8.0 | 11.3 | 0.00 | 0.00 | 0.00 | 65 | 1003.8 |
| 20260509024745 | 7 | 202 | 4.8 | 14.5 | 0.00 | 0.00 | 0.00 | 65 | 1003.7 |
| 20260509024244 | 7 | 199 | 6.4 | 14.5 | 0.00 | 0.00 | 0.00 | 66 | 1003.7 |
| 20260509023744 | 7 | 171 | 3.2 | 9.7 | 0.00 | 0.00 | 0.00 | 67 | 1003.8 |
| 20260509023241 | 7 | 192 | 4.8 | 11.3 | 0.00 | 0.00 | 0.00 | 68 | 1003.8 |
| 20260509022740 | 7 | 192 | 8.0 | 11.3 | 0.00 | 0.00 | 0.00 | 68 | 1003.9 |
| 20260509021739 | 7 | 166 | 6.4 | 9.7 | 0.00 | 0.00 | 0.00 | 70 | 1003.9 |
| 20260509021239 | 7 | 200 | 3.2 | 8.0 | 0.00 | 0.00 | 0.00 | 69 | 1003.9 |
| 20260509021008 | 7 | 182 | 3.2 | 8.0 | 0.00 | 0.00 | 0.00 | 69 | 1003.9 |
| 20260509020241 | 7 | 186 | 3.2 | 6.4 | 0.00 | 0.00 | 0.00 | 69 | 1003.9 |
| 20260509015725 | 7 | 179 | 3.2 | 6.4 | 0.00 | 0.00 | 0.00 | 68 | 1003.9 |
| 20260509015224 | 7 | 162 | 3.2 | 6.4 | 0.00 | 0.00 | 0.00 | 67 | 1003.9 |
| 20260509014719 | 7 | 151 | 3.2 | 6.4 | 0.00 | 0.00 | 0.00 | 67 | 1003.8 |
| 20260509014219 | 7 | 166 | 3.2 | 8.0 | 0.00 | 0.00 | 0.00 | 67 | 1003.9 |
| 20260509013718 | 7 | 155 | 4.8 | 8.0 | 0.00 | 0.00 | 0.00 | 67 | 1003.9 |
| 20260509013215 | 7 | 168 | 4.8 | 6.4 | 0.00 | 0.00 | 0.00 | 67 | 1003.9 |
| 20260509012714 | 7 | 161 | 3.2 | 6.4 | 0.00 | 0.00 | 0.00 | 66 | 1003.9 |
| 20260509012440 | 7 | 155 | 3.2 | 6.4 | 0.00 | 0.00 | 0.00 | 66 | 1003.8 |
| 20260509011711 | 7 | 188 | 1.6 | 6.4 | 0.00 | 0.00 | 0.00 | 66 | 1003.8 |
| 20260509011212 | 7 | 157 | 3.2 | 6.4 | 0.00 | 0.00 | 0.00 | 66 | 1003.8 |
| 20260509010710 | 7 | 158 | 3.2 | 4.8 | 0.00 | 0.00 | 0.00 | 65 | 1003.7 |
| 20260509010214 | 7 | 151 | 3.2 | 8.0 | 0.00 | 0.00 | 0.00 | 65 | 1003.7 |
| 20260509005757 | 7 | 144 | 3.2 | 6.4 | 0.00 | 0.00 | 0.00 | 64 | 1003.7 |
| 20260509005031 | 8 | 137 | 1.6 | 6.4 | 0.00 | 0.00 | 0.00 | 64 | 1003.5 |
| 20260509004532 | 8 | 144 | 3.2 | 8.0 | 0.00 | 0.00 | 0.00 | 64 | 1003.7 |
| 20260509004031 | 8 | 134 | 1.6 | 8.0 | 0.00 | 0.00 | 0.00 | 65 | 1003.7 |
| 20260509003530 | 8 | 141 | 3.2 | 6.4 | 0.00 | 0.00 | 0.00 | 66 | 1003.5 |
| 20260509003027 | 8 | 141 | 1.6 | 8.0 | 0.00 | 0.00 | 0.00 | 68 | 1003.5 |
| 20260509002526 | 8 | 121 | 1.6 | 8.0 | 0.00 | 0.00 | 0.00 | 71 | 1003.5 |
| 20260509002027 | 7 | 127 | 3.2 | 6.4 | 0.00 | 0.00 | 0.00 | 75 | 1003.5 |
| 20260509001527 | 7 | 131 | 3.2 | 8.0 | 0.00 | 0.00 | 0.00 | 81 | 1003.5 |
| 20260509001026 | 6 | 137 | 4.8 | 8.0 | 0.00 | 0.00 | 0.00 | 86 | 1003.5 |
| 20260509000526 | 6 | 154 | 3.2 | 6.4 | 0.00 | 0.00 | 0.00 | 87 | 1003.7 |
| 20260509000020 | 6 | 96 | 0.0 | 4.8 | 0.00 | 0.00 | 0.00 | 87 | 1003.7 |
| 20260508235736 | 6 | 85 | 3.2 | 4.8 | 0.00 | 0.00 | 0.00 | 87 | 1003.7 |
| 20260508235008 | 6 | 85 | 1.6 | 4.8 | 0.00 | 0.00 | 0.00 | 87 | 1003.7 |
| 20260508234231 | 6 | 99 | 3.2 | 4.8 | 0.00 | 0.00 | 0.00 | 86 | 1003.9 |
| 20260508233503 | 6 | 75 | 1.6 | 4.8 | 0.00 | 0.00 | 0.00 | 86 | 1004.0 |
| 20260508233004 | 6 | 86 | 1.6 | 6.4 | 0.00 | 0.00 | 0.00 | 85 | 1003.9 |
| 20260508232503 | 6 | 87 | 3.2 | 6.4 | 0.00 | 0.00 | 0.00 | 85 | 1004.0 |
| 20260508232004 | 6 | 72 | 3.2 | 6.4 | 0.00 | 0.00 | 0.00 | 85 | 1004.0 |
| 20260508231504 | 6 | 80 | 3.2 | 9.7 | 0.00 | 0.00 | 0.00 | 84 | 1004.0 |
| 20260508231002 | 6 | 102 | 3.2 | 9.7 | 0.00 | 0.00 | 0.00 | 84 | 1004.0 |
| 20260508230504 | 6 | 110 | 4.8 | 11.3 | 0.00 | 0.00 | 0.00 | 83 | 1004.0 |
| 20260508230004 | 6 | 95 | 6.4 | 11.3 | 0.00 | 0.00 | 0.00 | 82 | 1004.0 |
| 20260508225503 | 6 | 86 | 6.4 | 9.7 | 0.00 | 0.00 | 0.00 | 83 | 1004.1 |
| 20260508225004 | 7 | 62 | 6.4 | 9.7 | 0.00 | 0.00 | 0.00 | 82 | 1004.1 |
| 20260508224503 | 7 | 75 | 6.4 | 9.7 | 0.00 | 0.00 | 0.00 | 81 | 1004.2 |
| 20260508224006 | 7 | 104 | 6.4 | 11.3 | 0.00 | 0.00 | 0.00 | 81 | 1004.2 |
| 20260508223503 | 7 | 76 | 8.0 | 11.3 | 0.00 | 0.00 | 0.00 | 81 | 1004.2 |
| 20260508222958 | 7 | 89 | 3.2 | 14.5 | 0.00 | 0.00 | 0.00 | 81 | 1004.2 |
| 20260508222724 | 7 | 86 | 6.4 | 16.1 | 0.00 | 0.00 | 0.00 | 80 | 1004.2 |
| 20260508221958 | 7 | 126 | 6.4 | 16.1 | 0.00 | 0.00 | 0.00 | 79 | 1004.2 |
| 20260508221454 | 7 | 78 | 8.0 | 16.1 | 0.00 | 0.00 | 0.00 | 78 | 1004.2 |
| 20260508220954 | 7 | 110 | 4.8 | 11.3 | 0.00 | 0.00 | 0.00 | 78 | 1004.4 |
| 20260508220454 | 7 | 82 | 6.4 | 11.3 | 0.00 | 0.00 | 0.00 | 77 | 1004.3 |
| 20260508215955 | 8 | 79 | 9.7 | 11.3 | 0.00 | 0.00 | 0.00 | 77 | 1004.3 |
| 20260508215454 | 8 | 83 | 6.4 | 14.5 | 0.00 | 0.00 | 0.00 | 76 | 1004.4 |
| 20260508214954 | 8 | 92 | 9.7 | 14.5 | 0.00 | 0.00 | 0.00 | 78 | 1004.4 |
| 20260508214451 | 8 | 86 | 9.7 | 14.5 | 0.00 | 0.00 | 0.00 | 77 | 1004.4 |
| 20260508213951 | 8 | 75 | 8.0 | 17.7 | 0.00 | 0.00 | 0.00 | 78 | 1004.5 |
| 20260508213718 | 7 | 66 | 6.4 | 20.9 | 0.00 | 0.00 | 0.00 | 77 | 1004.4 |
| 20260508213220 | 7 | 103 | 9.7 | 20.9 | 0.00 | 0.00 | 0.00 | 76 | 1004.4 |
| 20260508212450 | 7 | 93 | 11.3 | 17.7 | 0.00 | 0.00 | 0.00 | 75 | 1004.4 |
| 20260508211950 | 7 | 96 | 6.4 | 16.1 | 0.00 | 0.00 | 0.00 | 75 | 1004.5 |
| 20260508211453 | 8 | 110 | 9.7 | 16.1 | 0.00 | 0.00 | 0.00 | 75 | 1004.5 |
| 20260508210950 | 8 | 54 | 8.0 | 14.5 | 0.00 | 0.00 | 0.00 | 75 | 1004.5 |
| 20260508210717 | 8 | 71 | 8.0 | 14.5 | 0.00 | 0.00 | 0.00 | 76 | 1004.6 |
| 20260508205950 | 7 | 75 | 6.4 | 14.5 | 0.00 | 0.00 | 0.00 | 75 | 1004.6 |
| 20260508205449 | 7 | 80 | 8.0 | 16.1 | 0.00 | 0.00 | 0.00 | 75 | 1004.6 |
| 20260508204950 | 7 | 75 | 8.0 | 17.7 | 0.00 | 0.00 | 0.00 | 74 | 1004.7 |
| 20260508204450 | 8 | 59 | 9.7 | 17.7 | 0.00 | 0.00 | 0.00 | 73 | 1004.8 |
| 20260508203950 | 8 | 72 | 4.8 | 14.5 | 0.00 | 0.00 | 0.00 | 75 | 1004.7 |
| 20260508202948 | 8 | 76 | 9.7 | 17.7 | 0.00 | 0.00 | 0.00 | 72 | 1004.6 |
| 20260508202448 | 8 | 92 | 8.0 | 17.7 | 0.00 | 0.00 | 0.00 | 72 | 1004.6 |
| 20260508201949 | 8 | 79 | 9.7 | 17.7 | 0.00 | 0.00 | 0.00 | 73 | 1004.5 |
| 20260508201451 | 8 | 71 | 9.7 | 17.7 | 0.00 | 0.00 | 0.00 | 73 | 1004.5 |
| 20260508200949 | 8 | 45 | 9.7 | 17.7 | 0.00 | 0.00 | 0.00 | 76 | 1004.7 |
| 20260508200450 | 8 | 61 | 8.0 | 17.7 | 0.00 | 0.00 | 0.00 | 73 | 1004.6 |
| 20260508195950 | 8 | 93 | 9.7 | 19.3 | 0.00 | 0.00 | 0.00 | 72 | 1004.7 |
| 20260508195448 | 8 | 93 | 6.4 | 20.9 | 0.00 | 0.00 | 0.00 | 71 | 1004.9 |
| 20260508194948 | 8 | 102 | 14.5 | 20.9 | 0.00 | 0.00 | 0.00 | 70 | 1004.7 |
| 20260508194447 | 8 | 103 | 11.3 | 22.5 | 0.00 | 0.00 | 0.00 | 71 | 1004.8 |
| 20260508193948 | 8 | 75 | 12.9 | 22.5 | 0.00 | 0.00 | 0.00 | 71 | 1005.0 |
| 20260508193447 | 8 | 100 | 12.9 | 19.3 | 0.00 | 0.00 | 0.00 | 70 | 1004.9 |
| 20260508192947 | 8 | 87 | 9.7 | 20.9 | 0.00 | 0.00 | 0.00 | 72 | 1005.1 |
| 20260508192447 | 8 | 117 | 6.4 | 20.9 | 0.00 | 0.00 | 0.00 | 71 | 1005.0 |
| 20260508191946 | 8 | 92 | 11.3 | 17.7 | 0.00 | 0.00 | 0.00 | 72 | 1005.1 |
| 20260508191446 | 8 | 102 | 8.0 | 17.7 | 0.00 | 0.00 | 0.00 | 73 | 1005.2 |
| 20260508190947 | 8 | 65 | 9.7 | 17.7 | 0.00 | 0.00 | 0.00 | 74 | 1005.3 |
| 20260508190447 | 8 | 55 | 8.0 | 19.3 | 0.00 | 0.00 | 0.00 | 74 | 1005.3 |
| 20260508185947 | 8 | 145 | 9.7 | 19.3 | 0.00 | 0.00 | 0.00 | 73 | 1005.3 |
| 20260508185447 | 8 | 103 | 9.7 | 17.7 | 0.00 | 0.00 | 0.00 | 73 | 1005.3 |
| 20260508184946 | 8 | 92 | 6.4 | 17.7 | 0.00 | 0.00 | 0.00 | 73 | 1005.5 |
| 20260508184445 | 8 | 92 | 9.7 | 17.7 | 0.00 | 0.00 | 0.00 | 74 | 1005.4 |
| 20260508183946 | 8 | 75 | 8.0 | 17.7 | 0.00 | 0.00 | 0.00 | 74 | 1005.5 |
| 20260508183458 | 8 | 78 | 9.7 | 17.7 | 0.00 | 0.00 | 0.00 | 73 | 1005.6 |
| 20260508182945 | 8 | 87 | 11.3 | 17.7 | 0.00 | 0.00 | 0.00 | 75 | 1005.7 |
| 20260508182445 | 8 | 89 | 9.7 | 19.3 | 0.00 | 0.00 | 0.00 | 76 | 1005.7 |
| 20260508181945 | 8 | 114 | 9.7 | 19.3 | 0.00 | 0.00 | 0.00 | 75 | 1005.7 |
| 20260508181444 | 7 | 69 | 9.7 | 19.3 | 0.00 | 0.00 | 0.00 | 75 | 1005.8 |
| 20260508180944 | 7 | 75 | 11.3 | 19.3 | 0.00 | 0.00 | 0.00 | 75 | 1005.8 |
| 20260508180447 | 7 | 86 | 9.7 | 19.3 | 0.00 | 0.00 | 0.00 | 74 | 1005.9 |
| 20260508175944 | 7 | 116 | 9.7 | 20.9 | 0.00 | 0.00 | 0.00 | 74 | 1005.9 |
| 20260508175444 | 7 | 107 | 9.7 | 22.5 | 0.00 | 0.00 | 0.00 | 74 | 1006.1 |
| 20260508174945 | 7 | 107 | 12.9 | 22.5 | 0.00 | 0.00 | 0.00 | 74 | 1006.1 |
| 20260508174444 | 7 | 92 | 8.0 | 17.7 | 0.00 | 0.00 | 0.00 | 75 | 1006.2 |
| 20260508173945 | 7 | 89 | 8.0 | 19.3 | 0.00 | 0.00 | 0.00 | 76 | 1006.3 |
| 20260508173443 | 7 | 85 | 9.7 | 19.3 | 0.00 | 0.00 | 0.00 | 73 | 1006.4 |
| 20260508172943 | 7 | 87 | 12.9 | 20.9 | 0.00 | 0.00 | 0.00 | 72 | 1006.4 |
| 20260508172443 | 7 | 99 | 11.3 | 20.9 | 0.00 | 0.00 | 0.00 | 73 | 1006.4 |
| 20260508171943 | 7 | 86 | 9.7 | 19.3 | 0.00 | 0.00 | 0.00 | 74 | 1006.6 |
| 20260508171443 | 7 | 114 | 11.3 | 17.7 | 0.00 | 0.00 | 0.00 | 73 | 1006.5 |
| 20260508170943 | 7 | 79 | 9.7 | 17.7 | 0.00 | 0.00 | 0.00 | 76 | 1006.5 |
| 20260508170442 | 6 | 66 | 9.7 | 17.7 | 0.00 | 0.00 | 0.00 | 75 | 1006.5 |
| 20260508170002 | 6 | 110 | 11.3 | 17.7 | 0.00 | 0.00 | 0.00 | 74 | 1006.6 |
| 20260508165457 | 7 | 123 | 9.7 | 17.7 | 0.00 | 0.00 | 0.00 | 75 | 1006.6 |
| 20260508165207 | 6 | 68 | 4.8 | 14.5 | 0.00 | 0.00 | 0.00 | 76 | 1006.7 |
| 20260508164441 | 6 | 106 | 8.0 | 14.5 | 0.00 | 0.00 | 0.00 | 76 | 1006.7 |
| 20260508163940 | 6 | 96 | 8.0 | 14.5 | 0.00 | 0.00 | 0.00 | 76 | 1006.8 |
| 20260508163437 | 6 | 99 | 3.2 | 16.1 | 0.00 | 0.00 | 0.00 | 75 | 1006.7 |
| 20260508162938 | 6 | 100 | 8.0 | 16.1 | 0.00 | 0.00 | 0.00 | 74 | 1006.7 |
| 20260508162438 | 7 | 62 | 8.0 | 17.7 | 0.00 | 0.00 | 0.00 | 74 | 1006.8 |
| 20260508161938 | 7 | 97 | 9.7 | 17.7 | 0.00 | 0.00 | 0.00 | 74 | 1006.8 |
| 20260508161438 | 7 | 107 | 8.0 | 16.1 | 0.00 | 0.00 | 0.00 | 74 | 1006.7 |
| 20260508160951 | 7 | 79 | 9.7 | 16.1 | 0.00 | 0.00 | 0.00 | 72 | 1006.8 |
| 20260508155938 | 7 | 89 | 11.3 | 16.1 | 0.00 | 0.00 | 0.00 | 70 | 1006.8 |
| 20260508155437 | 7 | 34 | 6.4 | 11.3 | 0.00 | 0.00 | 0.00 | 70 | 1006.9 |
| 20260508155206 | 8 | 117 | 4.8 | 11.3 | 0.00 | 0.00 | 0.00 | 73 | 1007.0 |
| 20260508154534 | 7 | 76 | 6.4 | 14.5 | 0.00 | 0.00 | 0.00 | 72 | 1007.1 |
| 20260508154521 | 8 | 95 | 6.4 | 14.5 | 0.00 | 0.00 | 0.00 | 72 | 1007.0 |
| 20260508153610 | 7 | 93 | 4.8 | 9.7 | 0.00 | 0.00 | 0.00 | 73 | 1007.2 |
| 20260508153029 | 7 | 118 | 3.2 | 9.7 | 0.00 | 0.00 | 0.00 | 76 | 1007.2 |
| 20260508152435 | 7 | 76 | 6.4 | 11.3 | 0.00 | 0.00 | 0.00 | 74 | 1007.2 |